TimeCST,TemperatureF,Dew PointF,Humidity,Sea Level PressureIn,VisibilityMPH,Wind Direction,Wind SpeedMPH,Gust SpeedMPH,PrecipitationIn,Events,Conditions,WindDirDegrees,DateUTC
12:15 AM,37.6,37.0,98,29.92,1.8,ESE,4.6,-,N/A,,Drizzle,120,2012-11-07 06:15:00
12:35 AM,37.6,37.2,99,29.91,1.5,ESE,4.6,-,N/A,,Drizzle,110,2012-11-07 06:35:00
12:55 AM,37.6,37.4,99,29.91,1.8,East,4.6,-,0.01,,Drizzle,90,2012-11-07 06:55:00
1:15 AM,37.4,37.2,99,29.92,1.5,East,4.6,-,N/A,,Drizzle,90,2012-11-07 07:15:00
1:35 AM,37.4,37.0,99,29.92,1.8,East,4.6,-,N/A,,Drizzle,90,2012-11-07 07:35:00
1:55 AM,37.6,37.4,99,29.92,1.8,East,4.6,-,N/A,,Drizzle,90,2012-11-07 07:55:00
2:15 AM,37.4,36.9,98,29.92,3.0,East,5.8,-,N/A,,Drizzle,100,2012-11-07 08:15:00
2:55 AM,36.7,35.6,96,29.93,4.0,East,5.8,-,N/A,,Overcast,90,2012-11-07 08:55:00
3:15 AM,36.5,34.9,94,29.93,5.0,East,6.9,-,N/A,,Overcast,90,2012-11-07 09:15:00
3:35 AM,36.0,34.2,93,29.93,5.0,East,6.9,-,N/A,,Overcast,80,2012-11-07 09:35:00
3:55 AM,35.8,33.8,92,29.94,5.0,ENE,5.8,-,N/A,,Overcast,70,2012-11-07 09:55:00
4:15 AM,35.6,33.8,93,29.94,5.0,East,6.9,-,N/A,,Overcast,80,2012-11-07 10:15:00
4:35 AM,35.4,33.3,92,29.95,5.0,East,6.9,-,N/A,Rain,Light Rain,80,2012-11-07 10:35:00
4:55 AM,35.1,33.1,92,29.95,5.0,East,8.1,-,N/A,,Light Drizzle,80,2012-11-07 10:55:00
5:15 AM,35.1,32.9,92,29.96,5.0,East,6.9,-,N/A,,Overcast,80,2012-11-07 11:15:00
5:35 AM,35.1,32.9,92,29.96,5.0,East,5.8,-,N/A,,Overcast,80,2012-11-07 11:35:00
5:55 AM,35.1,32.7,91,29.97,5.0,East,6.9,-,N/A,,Overcast,80,2012-11-07 11:55:00
6:15 AM,35.1,32.9,92,29.97,5.0,East,5.8,-,N/A,,Overcast,80,2012-11-07 12:15:00
6:35 AM,35.2,32.9,91,29.98,5.0,East,5.8,-,N/A,,Overcast,80,2012-11-07 12:35:00
6:55 AM,35.4,33.3,92,29.99,5.0,ENE,5.8,-,N/A,,Overcast,70,2012-11-07 12:55:00
7:15 AM,35.8,33.4,91,30.00,5.0,East,5.8,-,N/A,,Overcast,80,2012-11-07 13:15:00
7:35 AM,36.5,33.4,89,30.01,5.0,East,5.8,-,N/A,,Overcast,80,2012-11-07 13:35:00
7:55 AM,36.9,33.8,89,30.01,5.0,East,9.2,-,N/A,,Overcast,90,2012-11-07 13:55:00
8:15 AM,37.6,33.8,86,30.02,5.0,East,6.9,-,N/A,,Overcast,100,2012-11-07 14:15:00
8:35 AM,38.3,34.9,87,30.03,5.0,East,6.9,-,N/A,,Overcast,90,2012-11-07 14:35:00
8:55 AM,39.0,34.5,84,30.04,7.0,East,8.1,-,N/A,,Overcast,90,2012-11-07 14:55:00
9:15 AM,39.9,34.7,82,30.04,7.0,East,6.9,-,N/A,,Overcast,90,2012-11-07 15:15:00
9:35 AM,40.8,34.7,79,30.05,7.0,East,6.9,-,N/A,,Overcast,80,2012-11-07 15:35:00
9:55 AM,41.4,34.7,77,30.05,7.0,NE,5.8,-,N/A,,Overcast,50,2012-11-07 15:55:00
10:15 AM,43.0,34.9,73,30.05,7.0,East,3.5,-,N/A,,Overcast,100,2012-11-07 16:15:00
10:35 AM,44.6,34.3,67,30.06,10.0,ENE,6.9,-,0.01,,Scattered Clouds,70,2012-11-07 16:35:00
10:55 AM,45.1,33.8,65,30.06,10.0,ENE,3.5,-,0.01,,Clear,60,2012-11-07 16:55:00
11:15 AM,45.5,34.0,64,30.06,10.0,ENE,5.8,-,N/A,,Mostly Cloudy,60,2012-11-07 17:15:00
11:35 AM,45.3,33.8,64,30.05,10.0,NE,5.8,-,N/A,,Overcast,40,2012-11-07 17:35:00
11:55 AM,46.4,32.4,58,30.05,10.0,ENE,6.9,-,N/A,,Scattered Clouds,60,2012-11-07 17:55:00
12:15 PM,46.8,32.0,57,30.05,10.0,NNE,3.5,-,N/A,,Scattered Clouds,30,2012-11-07 18:15:00
12:35 PM,46.9,32.4,57,30.05,10.0,Calm,Calm,-,N/A,,Scattered Clouds,0,2012-11-07 18:35:00
12:55 PM,47.1,32.9,58,30.05,10.0,NNE,5.8,-,N/A,,Overcast,30,2012-11-07 18:55:00
1:15 PM,46.2,32.2,58,30.05,10.0,Calm,Calm,-,N/A,,Mostly Cloudy,0,2012-11-07 19:15:00
1:35 PM,47.5,32.2,55,30.05,10.0,East,3.5,-,N/A,,Clear,80,2012-11-07 19:35:00
1:55 PM,48.0,32.4,55,30.05,10.0,ENE,5.8,-,N/A,,Scattered Clouds,60,2012-11-07 19:55:00
2:15 PM,46.0,32.2,58,30.05,10.0,NE,3.5,-,N/A,,Scattered Clouds,40,2012-11-07 20:15:00
2:35 PM,46.2,32.0,58,30.07,10.0,Calm,Calm,-,N/A,,Scattered Clouds,0,2012-11-07 20:35:00
2:55 PM,46.6,33.1,59,30.07,10.0,NNE,5.8,-,N/A,,Mostly Cloudy,20,2012-11-07 20:55:00
3:15 PM,46.2,32.0,58,30.08,10.0,NNE,4.6,-,N/A,,Scattered Clouds,30,2012-11-07 21:15:00
3:35 PM,45.9,33.3,61,30.08,10.0,NNW,4.6,-,N/A,,Clear,340,2012-11-07 21:35:00
3:55 PM,44.8,33.8,65,30.08,10.0,NW,3.5,-,N/A,,Clear,320,2012-11-07 21:55:00
4:15 PM,43.2,34.5,72,30.09,10.0,North,6.9,-,N/A,,Clear,350,2012-11-07 22:15:00
4:35 PM,41.2,33.8,75,30.09,10.0,North,5.8,-,N/A,,Clear,360,2012-11-07 22:35:00
4:55 PM,39.9,33.6,78,30.10,10.0,NNW,5.8,-,N/A,,Clear,340,2012-11-07 22:55:00
5:15 PM,39.0,34.0,82,30.11,10.0,North,4.6,-,N/A,,Clear,350,2012-11-07 23:15:00
5:35 PM,35.8,32.0,86,30.11,7.0,North,3.5,-,N/A,,Clear,350,2012-11-07 23:35:00
5:55 PM,35.1,32.0,89,30.11,7.0,NNW,5.8,-,N/A,,Clear,340,2012-11-07 23:55:00
6:15 PM,34.9,31.8,89,30.12,5.0,Calm,Calm,-,N/A,,Clear,0,2012-11-08 00:15:00
6:35 PM,34.5,32.0,90,30.12,7.0,NNW,3.5,-,N/A,,Clear,340,2012-11-08 00:35:00
6:55 PM,33.3,31.3,92,30.13,7.0,NW,3.5,-,N/A,,Clear,320,2012-11-08 00:55:00
7:15 PM,32.9,31.5,94,30.14,7.0,Calm,Calm,-,N/A,,Clear,0,2012-11-08 01:15:00
7:35 PM,32.2,31.1,96,30.14,5.0,Calm,Calm,-,N/A,,Clear,0,2012-11-08 01:35:00
7:55 PM,31.1,29.5,94,30.14,5.0,Calm,Calm,-,N/A,,Clear,0,2012-11-08 01:55:00
8:15 PM,30.7,29.5,95,30.14,5.0,Calm,Calm,-,N/A,,Clear,0,2012-11-08 02:15:00
8:35 PM,31.3,30.4,96,30.15,5.0,Calm,Calm,-,N/A,,Clear,0,2012-11-08 02:35:00
8:55 PM,30.2,29.1,96,30.15,5.0,Calm,Calm,-,N/A,,Clear,0,2012-11-08 02:55:00
9:15 PM,30.0,29.1,96,30.15,4.0,Calm,Calm,-,N/A,,Scattered Clouds,0,2012-11-08 03:15:00
9:35 PM,30.0,29.3,97,30.15,5.0,Calm,Calm,-,N/A,,Clear,0,2012-11-08 03:35:00
9:55 PM,30.9,30.2,97,30.16,4.0,Calm,Calm,-,N/A,,Scattered Clouds,0,2012-11-08 03:55:00
10:15 PM,29.3,28.8,98,30.16,4.0,Calm,Calm,-,N/A,,Clear,0,2012-11-08 04:15:00
10:35 PM,28.6,27.9,97,30.16,3.0,Calm,Calm,-,N/A,,Scattered Clouds,0,2012-11-08 04:35:00
10:55 PM,27.9,27.3,98,30.15,3.0,Calm,Calm,-,N/A,,Scattered Clouds,0,2012-11-08 04:55:00
11:15 PM,28.2,27.7,98,30.15,2.5,Calm,Calm,-,N/A,,Mist,0,2012-11-08 05:15:00
11:35 PM,27.9,27.5,99,30.16,3.0,Calm,Calm,-,N/A,,Scattered Clouds,0,2012-11-08 05:35:00
11:55 PM,27.5,27.1,99,30.16,3.0,Calm,Calm,-,N/A,,Scattered Clouds,0,2012-11-08 05:55:00